| time (UTC) | temp F | wind direction | speed MPH | gust MPH | rain 1hr in | rain 24hr in | rain mn in | humidity % | barometer mb |
| 20260506021455 | 55 | 37 | 3.0 | 4.0 | 0.00 | 0.02 | 0.00 | 82 | 1009.7 |
| 20260506020955 | 55 | 32 | 3.0 | 5.0 | 0.00 | 0.02 | 0.00 | 82 | 1009.7 |
| 20260506020455 | 55 | 46 | 3.0 | 5.0 | 0.00 | 0.02 | 0.00 | 82 | 1009.8 |
| 20260506015955 | 55 | 32 | 3.0 | 5.0 | 0.00 | 0.02 | 0.00 | 82 | 1009.8 |
| 20260506015455 | 55 | 10 | 3.0 | 5.0 | 0.00 | 0.02 | 0.00 | 83 | 1009.7 |
| 20260506014955 | 55 | 12 | 3.0 | 5.0 | 0.00 | 0.02 | 0.00 | 83 | 1009.7 |
| 20260506014455 | 55 | 359 | 3.0 | 6.0 | 0.00 | 0.02 | 0.00 | 83 | 1009.7 |
| 20260506013955 | 55 | 23 | 3.0 | 5.0 | 0.00 | 0.02 | 0.00 | 83 | 1009.7 |
| 20260506013455 | 55 | 359 | 3.0 | 5.0 | 0.00 | 0.02 | 0.00 | 82 | 1009.8 |
| 20260506012955 | 55 | 4 | 3.0 | 6.0 | 0.00 | 0.02 | 0.00 | 82 | 1009.8 |
| 20260506012455 | 55 | 359 | 3.0 | 8.0 | 0.00 | 0.02 | 0.00 | 82 | 1009.8 |
| 20260506011955 | 55 | 349 | 3.0 | 5.0 | 0.00 | 0.02 | 0.00 | 82 | 1009.8 |
| 20260506011455 | 55 | 324 | 2.0 | 5.0 | 0.00 | 0.02 | 0.00 | 82 | 1009.8 |
| 20260506010955 | 55 | 335 | 2.0 | 5.0 | 0.00 | 0.02 | 0.00 | 82 | 1009.8 |
| 20260506010455 | 55 | 348 | 3.0 | 5.0 | 0.00 | 0.02 | 0.00 | 82 | 1009.9 |
| 20260506005955 | 55 | 341 | 3.0 | 4.0 | 0.00 | 0.02 | 0.00 | 82 | 1009.9 |
| 20260506005455 | 55 | 339 | 3.0 | 7.0 | 0.00 | 0.02 | 0.00 | 82 | 1009.9 |
| 20260506004955 | 55 | 318 | 3.0 | 5.0 | 0.00 | 0.02 | 0.00 | 81 | 1009.9 |
| 20260506004455 | 55 | 318 | 3.0 | 5.0 | 0.00 | 0.02 | 0.00 | 82 | 1009.9 |
| 20260506003955 | 55 | 324 | 3.0 | 5.0 | 0.00 | 0.02 | 0.00 | 81 | 1009.9 |
| 20260506003455 | 55 | 337 | 3.0 | 5.0 | 0.00 | 0.02 | 0.00 | 81 | 1009.9 |
| 20260506002955 | 55 | 328 | 3.0 | 5.0 | 0.00 | 0.02 | 0.00 | 81 | 1010.0 |
| 20260506002455 | 55 | 333 | 3.0 | 6.0 | 0.00 | 0.02 | 0.00 | 81 | 1010.0 |
| 20260506001955 | 55 | 354 | 3.0 | 4.0 | 0.00 | 0.02 | 0.00 | 81 | 1010.1 |
| 20260506001455 | 55 | 338 | 3.0 | 6.0 | 0.00 | 0.02 | 0.00 | 81 | 1010.1 |
| 20260506000955 | 55 | 4 | 3.0 | 6.0 | 0.00 | 0.02 | 0.00 | 81 | 1010.1 |
| 20260506000455 | 55 | 324 | 4.0 | 6.0 | 0.00 | 0.02 | 0.00 | 81 | 1010.1 |
| 20260505235955 | 55 | 316 | 3.0 | 8.0 | 0.00 | 0.02 | 0.00 | 81 | 1010.1 |
| 20260505235455 | 55 | 332 | 3.0 | 5.0 | 0.00 | 0.02 | 0.00 | 80 | 1010.1 |
| 20260505234955 | 55 | 318 | 4.0 | 8.0 | 0.00 | 0.02 | 0.00 | 80 | 1010.1 |
| 20260505234455 | 55 | 314 | 4.0 | 6.0 | 0.00 | 0.02 | 0.00 | 80 | 1010.1 |
| 20260505233955 | 55 | 317 | 4.0 | 6.0 | 0.00 | 0.02 | 0.00 | 80 | 1010.1 |
| 20260505233455 | 55 | 321 | 3.0 | 8.0 | 0.00 | 0.02 | 0.00 | 80 | 1010.1 |
| 20260505232955 | 55 | 321 | 3.0 | 4.0 | 0.00 | 0.02 | 0.00 | 80 | 1010.1 |
| 20260505232455 | 55 | 313 | 3.0 | 8.0 | 0.00 | 0.02 | 0.00 | 80 | 1010.1 |
| 20260505231955 | 55 | 337 | 3.0 | 5.0 | 0.00 | 0.02 | 0.00 | 80 | 1010.2 |
| 20260505231455 | 55 | 311 | 3.0 | 7.0 | 0.00 | 0.02 | 0.00 | 80 | 1010.2 |
| 20260505230955 | 55 | 303 | 3.0 | 8.0 | 0.00 | 0.02 | 0.00 | 80 | 1010.2 |
| 20260505230455 | 55 | 310 | 3.0 | 6.0 | 0.00 | 0.02 | 0.02 | 80 | 1010.2 |
| 20260505225955 | 55 | 310 | 3.0 | 8.0 | 0.00 | 0.02 | 0.02 | 80 | 1010.2 |
| 20260505225455 | 55 | 318 | 3.0 | 7.0 | 0.00 | 0.02 | 0.02 | 80 | 1010.3 |
| 20260505224955 | 55 | 294 | 4.0 | 8.0 | 0.00 | 0.02 | 0.02 | 80 | 1010.3 |
| 20260505224455 | 55 | 307 | 3.0 | 6.0 | 0.00 | 0.02 | 0.02 | 80 | 1010.3 |
| 20260505223955 | 55 | 309 | 2.0 | 5.0 | 0.00 | 0.02 | 0.02 | 80 | 1010.4 |
| 20260505223455 | 55 | 318 | 2.0 | 5.0 | 0.00 | 0.02 | 0.02 | 80 | 1010.3 |
| 20260505222955 | 55 | 8 | 3.0 | 4.0 | 0.00 | 0.02 | 0.02 | 80 | 1010.3 |
| 20260505222455 | 55 | 322 | 3.0 | 7.0 | 0.00 | 0.02 | 0.02 | 80 | 1010.4 |
| 20260505221955 | 55 | 330 | 3.0 | 7.0 | 0.00 | 0.02 | 0.02 | 80 | 1010.4 |
| 20260505221455 | 55 | 4 | 3.0 | 5.0 | 0.00 | 0.02 | 0.02 | 79 | 1010.4 |
| 20260505220955 | 55 | 318 | 3.0 | 6.0 | 0.00 | 0.02 | 0.02 | 79 | 1010.4 |
| 20260505220455 | 56 | 312 | 3.0 | 5.0 | 0.00 | 0.02 | 0.02 | 79 | 1010.5 |
| 20260505215955 | 56 | 335 | 3.0 | 7.0 | 0.00 | 0.02 | 0.02 | 79 | 1010.4 |
| 20260505215455 | 56 | 318 | 3.0 | 6.0 | 0.00 | 0.02 | 0.02 | 79 | 1010.5 |
| 20260505214955 | 56 | 349 | 3.0 | 8.0 | 0.00 | 0.02 | 0.02 | 78 | 1010.6 |
| 20260505214455 | 56 | 338 | 3.0 | 5.0 | 0.00 | 0.02 | 0.02 | 78 | 1010.5 |
| 20260505213955 | 56 | 328 | 3.0 | 6.0 | 0.00 | 0.02 | 0.02 | 77 | 1010.6 |
| 20260505213455 | 56 | 349 | 3.0 | 7.0 | 0.00 | 0.02 | 0.02 | 77 | 1010.6 |
| 20260505212955 | 56 | 331 | 2.0 | 7.0 | 0.00 | 0.02 | 0.02 | 76 | 1010.6 |
| 20260505212455 | 56 | 319 | 3.0 | 5.0 | 0.00 | 0.02 | 0.02 | 76 | 1010.6 |
| 20260505211955 | 56 | 313 | 3.0 | 6.0 | 0.00 | 0.02 | 0.02 | 76 | 1010.7 |
| 20260505211455 | 56 | 308 | 3.0 | 6.0 | 0.00 | 0.02 | 0.02 | 76 | 1010.6 |
| 20260505210955 | 56 | 317 | 2.0 | 5.0 | 0.00 | 0.02 | 0.02 | 76 | 1010.6 |
| 20260505210455 | 56 | 339 | 2.0 | 5.0 | 0.00 | 0.02 | 0.02 | 76 | 1010.6 |
| 20260505205955 | 56 | 318 | 3.0 | 5.0 | 0.00 | 0.02 | 0.02 | 76 | 1010.6 |
| 20260505205455 | 56 | 330 | 3.0 | 5.0 | 0.00 | 0.02 | 0.02 | 75 | 1010.6 |
| 20260505204955 | 56 | 318 | 3.0 | 8.0 | 0.00 | 0.02 | 0.02 | 75 | 1010.7 |
| 20260505204455 | 56 | 339 | 2.0 | 6.0 | 0.00 | 0.02 | 0.02 | 75 | 1010.7 |
| 20260505203955 | 56 | 359 | 2.0 | 4.0 | 0.00 | 0.02 | 0.02 | 75 | 1010.6 |
| 20260505203455 | 56 | 337 | 2.0 | 4.0 | 0.00 | 0.02 | 0.02 | 75 | 1010.6 |
| 20260505202955 | 56 | 354 | 2.0 | 5.0 | 0.00 | 0.02 | 0.02 | 75 | 1010.6 |
| 20260505202455 | 56 | 330 | 3.0 | 4.0 | 0.00 | 0.02 | 0.02 | 74 | 1010.6 |
| 20260505201955 | 56 | 320 | 3.0 | 5.0 | 0.00 | 0.02 | 0.02 | 74 | 1010.5 |
| 20260505201455 | 56 | 4 | 3.0 | 4.0 | 0.00 | 0.02 | 0.02 | 74 | 1010.5 |
| 20260505200955 | 56 | 309 | 3.0 | 6.0 | 0.00 | 0.02 | 0.02 | 74 | 1010.4 |
| 20260505200455 | 56 | 354 | 3.0 | 6.0 | 0.00 | 0.02 | 0.02 | 74 | 1010.4 |
| 20260505195955 | 56 | 4 | 3.0 | 5.0 | 0.00 | 0.02 | 0.02 | 74 | 1010.3 |
| 20260505195455 | 56 | 316 | 3.0 | 6.0 | 0.00 | 0.02 | 0.02 | 73 | 1010.3 |
| 20260505194955 | 56 | 316 | 4.0 | 6.0 | 0.00 | 0.02 | 0.02 | 73 | 1010.2 |
| 20260505194455 | 56 | 318 | 3.0 | 6.0 | 0.00 | 0.02 | 0.02 | 73 | 1010.2 |
| 20260505193955 | 56 | 326 | 3.0 | 5.0 | 0.00 | 0.02 | 0.02 | 73 | 1010.2 |
| 20260505193455 | 56 | 4 | 3.0 | 8.0 | 0.00 | 0.02 | 0.02 | 73 | 1010.1 |
| 20260505192955 | 56 | 4 | 3.0 | 8.0 | 0.00 | 0.02 | 0.02 | 73 | 1010.1 |
| 20260505192455 | 56 | 325 | 3.0 | 8.0 | 0.00 | 0.02 | 0.02 | 73 | 1010.1 |
| 20260505191955 | 56 | 345 | 3.0 | 8.0 | 0.00 | 0.02 | 0.02 | 73 | 1010.1 |
| 20260505191455 | 57 | 354 | 4.0 | 8.0 | 0.00 | 0.02 | 0.02 | 73 | 1010.1 |
| 20260505190955 | 56 | 322 | 4.0 | 11.0 | 0.00 | 0.02 | 0.02 | 73 | 1010.1 |
| 20260505190455 | 56 | 310 | 4.0 | 6.0 | 0.00 | 0.02 | 0.02 | 73 | 1010.1 |
| 20260505185955 | 56 | 318 | 5.0 | 10.0 | 0.00 | 0.02 | 0.02 | 73 | 1010.0 |
| 20260505185456 | 57 | 322 | 6.0 | 11.0 | 0.00 | 0.02 | 0.02 | 73 | 1010.0 |
| 20260505184955 | 57 | 4 | 6.0 | 13.0 | 0.00 | 0.02 | 0.02 | 72 | 1009.9 |
| 20260505184456 | 57 | 317 | 6.0 | 10.0 | 0.00 | 0.02 | 0.02 | 72 | 1009.9 |
| 20260505183956 | 57 | 317 | 6.0 | 11.0 | 0.00 | 0.02 | 0.02 | 72 | 1009.8 |
| 20260505183456 | 57 | 300 | 5.0 | 9.0 | 0.00 | 0.02 | 0.02 | 72 | 1009.8 |
| 20260505182956 | 57 | 336 | 5.0 | 14.0 | 0.00 | 0.02 | 0.02 | 71 | 1009.8 |
| 20260505182456 | 57 | 326 | 4.0 | 7.0 | 0.00 | 0.02 | 0.02 | 71 | 1009.8 |
| 20260505181956 | 57 | 318 | 5.0 | 10.0 | 0.00 | 0.02 | 0.02 | 71 | 1009.7 |
| 20260505181456 | 57 | 322 | 6.0 | 11.0 | 0.00 | 0.02 | 0.02 | 71 | 1009.7 |
| 20260505180956 | 57 | 336 | 7.0 | 14.0 | 0.00 | 0.02 | 0.02 | 71 | 1009.7 |
| 20260505180456 | 57 | 314 | 7.0 | 14.0 | 0.00 | 0.02 | 0.02 | 71 | 1009.7 |
| 20260505175956 | 57 | 341 | 7.0 | 13.0 | 0.00 | 0.02 | 0.02 | 71 | 1009.6 |
| 20260505175456 | 57 | 328 | 8.0 | 15.0 | 0.00 | 0.02 | 0.02 | 71 | 1009.7 |
| 20260505174956 | 57 | 310 | 7.0 | 13.0 | 0.00 | 0.02 | 0.02 | 72 | 1009.8 |
| 20260505174456 | 57 | 314 | 7.0 | 13.0 | 0.00 | 0.02 | 0.02 | 73 | 1009.7 |
| 20260505173956 | 57 | 318 | 6.0 | 13.0 | 0.00 | 0.02 | 0.02 | 74 | 1009.8 |
| 20260505173456 | 57 | 271 | 6.0 | 14.0 | 0.00 | 0.02 | 0.02 | 75 | 1009.7 |
| 20260505172956 | 57 | 318 | 7.0 | 12.0 | 0.00 | 0.02 | 0.02 | 76 | 1009.7 |
| 20260505172456 | 57 | 14 | 7.0 | 18.0 | 0.00 | 0.02 | 0.02 | 76 | 1009.7 |
| 20260505171956 | 57 | 314 | 7.0 | 11.0 | 0.00 | 0.02 | 0.02 | 76 | 1009.7 |
| 20260505171456 | 57 | 14 | 6.0 | 14.0 | 0.00 | 0.02 | 0.02 | 76 | 1009.8 |
| 20260505170956 | 57 | 333 | 7.0 | 14.0 | 0.00 | 0.02 | 0.02 | 75 | 1009.8 |
| 20260505170456 | 57 | 316 | 7.0 | 14.0 | 0.00 | 0.02 | 0.02 | 75 | 1009.9 |
| 20260505165956 | 57 | 328 | 5.0 | 13.0 | 0.00 | 0.02 | 0.02 | 74 | 1009.9 |
| 20260505165456 | 58 | 304 | 5.0 | 11.0 | 0.00 | 0.02 | 0.02 | 73 | 1009.8 |
| 20260505164956 | 58 | 30 | 5.0 | 10.0 | 0.00 | 0.02 | 0.02 | 72 | 1009.9 |
| 20260505164456 | 58 | 348 | 5.0 | 13.0 | 0.00 | 0.02 | 0.02 | 71 | 1009.8 |
| 20260505163956 | 58 | 4 | 6.0 | 11.0 | 0.00 | 0.02 | 0.02 | 72 | 1009.8 |
| 20260505163456 | 58 | 312 | 7.0 | 13.0 | 0.00 | 0.02 | 0.02 | 72 | 1009.8 |
| 20260505162956 | 58 | 348 | 8.0 | 13.0 | 0.00 | 0.02 | 0.02 | 72 | 1009.8 |
| 20260505162456 | 58 | 25 | 8.0 | 15.0 | 0.00 | 0.02 | 0.02 | 72 | 1009.7 |
| 20260505161956 | 57 | 4 | 7.0 | 15.0 | 0.00 | 0.02 | 0.02 | 71 | 1009.7 |
| 20260505161456 | 58 | 9 | 6.0 | 10.0 | 0.00 | 0.02 | 0.02 | 72 | 1009.6 |
| 20260505160956 | 58 | 13 | 6.0 | 13.0 | 0.00 | 0.02 | 0.02 | 72 | 1009.7 |
| 20260505160456 | 58 | 359 | 7.0 | 11.0 | 0.00 | 0.02 | 0.02 | 72 | 1009.6 |
| 20260505152956 | 58 | 319 | 8.0 | 15.0 | 0.00 | 0.02 | 0.02 | 72 | 1009.7 |
| 20260505152456 | 58 | 12 | 7.0 | 12.0 | 0.00 | 0.02 | 0.02 | 73 | 1009.7 |
| 20260505151956 | 58 | 24 | 8.0 | 13.0 | 0.00 | 0.02 | 0.02 | 73 | 1009.7 |
| 20260505151456 | 58 | 18 | 8.0 | 15.0 | 0.00 | 0.02 | 0.02 | 74 | 1009.8 |
| 20260505150956 | 58 | 9 | 8.0 | 14.0 | 0.00 | 0.02 | 0.02 | 74 | 1009.7 |
| 20260505150456 | 58 | 341 | 8.0 | 15.0 | 0.00 | 0.02 | 0.02 | 74 | 1009.8 |
| 20260505140456 | 57 | 344 | 10.0 | 18.0 | 0.00 | 0.02 | 0.02 | 78 | 1009.8 |
| 20260505124956 | 56 | 324 | 6.0 | 11.0 | 0.00 | 0.02 | 0.02 | 81 | 1010.1 |
| 20260505124456 | 56 | 54 | 7.0 | 15.0 | 0.00 | 0.02 | 0.02 | 81 | 1010.1 |
| 20260505123956 | 56 | 31 | 6.0 | 13.0 | 0.00 | 0.02 | 0.02 | 82 | 1010.1 |
| 20260505123456 | 56 | 359 | 5.0 | 9.0 | 0.01 | 0.02 | 0.02 | 83 | 1010.0 |
| 20260505122956 | 56 | 27 | 5.0 | 10.0 | 0.01 | 0.02 | 0.02 | 83 | 1010.0 |
| 20260505122456 | 55 | 13 | 4.0 | 10.0 | 0.01 | 0.02 | 0.02 | 83 | 1010.0 |
| 20260505121956 | 55 | 321 | 5.0 | 11.0 | 0.01 | 0.02 | 0.02 | 83 | 1010.1 |
| 20260505121456 | 55 | 4 | 5.0 | 12.0 | 0.01 | 0.02 | 0.02 | 83 | 1010.0 |
| 20260505120956 | 55 | 330 | 4.0 | 10.0 | 0.01 | 0.02 | 0.02 | 83 | 1010.1 |
| 20260505120456 | 55 | 27 | 5.0 | 9.0 | 0.01 | 0.02 | 0.02 | 83 | 1010.1 |
| 20260505115956 | 55 | 16 | 5.0 | 9.0 | 0.01 | 0.02 | 0.02 | 83 | 1010.2 |
| 20260505115456 | 56 | 23 | 5.0 | 11.0 | 0.01 | 0.02 | 0.02 | 83 | 1010.2 |
| 20260505114956 | 56 | 33 | 5.0 | 11.0 | 0.01 | 0.02 | 0.02 | 83 | 1010.2 |
| 20260505114456 | 56 | 347 | 3.0 | 10.0 | 0.01 | 0.02 | 0.02 | 83 | 1010.2 |
| 20260505113956 | 56 | 27 | 3.0 | 8.0 | 0.01 | 0.02 | 0.02 | 83 | 1010.2 |
| 20260505113456 | 56 | 50 | 3.0 | 7.0 | 0.00 | 0.01 | 0.01 | 82 | 1010.2 |
| 20260505112956 | 56 | 36 | 3.0 | 8.0 | 0.00 | 0.01 | 0.01 | 82 | 1010.3 |
| 20260505112456 | 56 | 55 | 3.0 | 6.0 | 0.00 | 0.01 | 0.01 | 82 | 1010.3 |
| 20260505111956 | 56 | 73 | 4.0 | 7.0 | 0.00 | 0.01 | 0.01 | 82 | 1010.3 |
| 20260505111456 | 56 | 60 | 4.0 | 10.0 | 0.00 | 0.01 | 0.01 | 81 | 1010.3 |
| 20260505110956 | 56 | 33 | 4.0 | 9.0 | 0.00 | 0.01 | 0.01 | 81 | 1010.3 |
| 20260505110456 | 56 | 16 | 4.0 | 9.0 | 0.00 | 0.01 | 0.01 | 81 | 1010.4 |
| 20260505110243 | 57 | 26 | 1.0 | 3.0 | 0.00 | 0.00 | 0.00 | 80 | 1012.0 |
| 20260505101956 | 57 | 359 | 5.0 | 10.0 | 0.00 | 0.01 | 0.01 | 78 | 1010.3 |
| 20260505101456 | 57 | 354 | 5.0 | 9.0 | 0.00 | 0.01 | 0.01 | 78 | 1010.3 |
| 20260505100956 | 57 | 10 | 3.0 | 9.0 | 0.00 | 0.01 | 0.01 | 79 | 1010.2 |
| 20260505100457 | 57 | 54 | 3.0 | 7.0 | 0.00 | 0.01 | 0.01 | 79 | 1010.2 |
| 20260505095956 | 57 | 25 | 4.0 | 8.0 | 0.00 | 0.01 | 0.01 | 80 | 1010.3 |
| 20260505095456 | 57 | 346 | 6.0 | 11.0 | 0.00 | 0.01 | 0.01 | 79 | 1010.3 |
| 20260505094956 | 56 | 31 | 5.0 | 11.0 | 0.00 | 0.01 | 0.01 | 80 | 1010.2 |
| 20260505094456 | 56 | 354 | 5.0 | 10.0 | 0.00 | 0.01 | 0.01 | 80 | 1010.2 |
| 20260505093956 | 56 | 14 | 5.0 | 10.0 | 0.00 | 0.01 | 0.01 | 81 | 1010.2 |
| 20260505093456 | 56 | 16 | 6.0 | 10.0 | 0.00 | 0.01 | 0.01 | 81 | 1010.2 |
| 20260505092956 | 56 | 49 | 6.0 | 11.0 | 0.00 | 0.01 | 0.01 | 81 | 1010.2 |
| 20260505092456 | 56 | 15 | 5.0 | 11.0 | 0.00 | 0.01 | 0.01 | 82 | 1010.2 |
| 20260505091956 | 56 | 20 | 4.0 | 9.0 | 0.00 | 0.01 | 0.01 | 82 | 1010.1 |
| 20260505091456 | 56 | 16 | 3.0 | 6.0 | 0.00 | 0.01 | 0.01 | 82 | 1010.1 |
| 20260505090956 | 56 | 33 | 4.0 | 10.0 | 0.00 | 0.01 | 0.01 | 82 | 1010.1 |
| 20260505090456 | 56 | 359 | 5.0 | 10.0 | 0.00 | 0.01 | 0.01 | 82 | 1010.1 |
| 20260505085956 | 56 | 18 | 7.0 | 12.0 | 0.00 | 0.01 | 0.01 | 82 | 1010.1 |
| 20260505085457 | 56 | 51 | 6.0 | 11.0 | 0.00 | 0.01 | 0.01 | 82 | 1010.0 |
| 20260505084956 | 56 | 50 | 6.0 | 12.0 | 0.00 | 0.01 | 0.01 | 82 | 1010.1 |
| 20260505084457 | 56 | 8 | 6.0 | 12.0 | 0.00 | 0.01 | 0.01 | 82 | 1010.2 |
| 20260505083957 | 56 | 359 | 7.0 | 13.0 | 0.00 | 0.01 | 0.01 | 83 | 1010.2 |
| 20260505083457 | 55 | 4 | 6.0 | 13.0 | 0.00 | 0.01 | 0.01 | 83 | 1010.2 |
| 20260505082957 | 55 | 42 | 5.0 | 9.0 | 0.00 | 0.01 | 0.01 | 83 | 1010.1 |
| 20260505082457 | 55 | 17 | 5.0 | 10.0 | 0.00 | 0.01 | 0.01 | 84 | 1010.0 |
| 20260505081957 | 55 | 337 | 5.0 | 8.0 | 0.00 | 0.01 | 0.01 | 84 | 1010.1 |
| 20260505081457 | 55 | 330 | 6.0 | 14.0 | 0.00 | 0.01 | 0.01 | 84 | 1010.1 |
| 20260505080957 | 55 | 359 | 6.0 | 13.0 | 0.00 | 0.01 | 0.01 | 84 | 1010.1 |
| 20260505080457 | 55 | 18 | 5.0 | 12.0 | 0.00 | 0.01 | 0.01 | 84 | 1010.1 |
| 20260505075957 | 55 | 312 | 4.0 | 10.0 | 0.00 | 0.01 | 0.01 | 84 | 1010.2 |
| 20260505075457 | 55 | 4 | 5.0 | 9.0 | 0.00 | 0.01 | 0.01 | 84 | 1010.2 |
| 20260505074957 | 55 | 19 | 4.0 | 10.0 | 0.00 | 0.01 | 0.01 | 84 | 1010.1 |
| 20260505074457 | 55 | 15 | 5.0 | 10.0 | 0.00 | 0.01 | 0.01 | 84 | 1010.1 |
| 20260505073957 | 55 | 18 | 5.0 | 14.0 | 0.00 | 0.01 | 0.01 | 84 | 1010.1 |
| 20260505073457 | 55 | 359 | 4.0 | 7.0 | 0.00 | 0.01 | 0.01 | 84 | 1010.0 |
| 20260505072957 | 55 | 28 | 4.0 | 10.0 | 0.00 | 0.01 | 0.01 | 84 | 1010.0 |
| 20260505072457 | 55 | 359 | 4.0 | 6.0 | 0.00 | 0.01 | 0.01 | 84 | 1010.0 |
| 20260505071957 | 55 | 41 | 4.0 | 10.0 | 0.00 | 0.01 | 0.01 | 84 | 1010.1 |
| 20260505071457 | 55 | 13 | 5.0 | 9.0 | 0.00 | 0.01 | 0.01 | 84 | 1010.2 |
| 20260505070957 | 55 | 29 | 5.0 | 10.0 | 0.00 | 0.01 | 0.01 | 85 | 1010.2 |
| 20260505070457 | 55 | 66 | 5.0 | 8.0 | 0.00 | 0.01 | 0.01 | 85 | 1010.2 |
| 20260505065957 | 55 | 39 | 5.0 | 10.0 | 0.00 | 0.01 | 0.01 | 85 | 1010.1 |
| 20260505065457 | 54 | 15 | 6.0 | 11.0 | 0.00 | 0.01 | 0.01 | 85 | 1010.2 |
| 20260505064957 | 54 | 56 | 7.0 | 12.0 | 0.00 | 0.01 | 0.01 | 85 | 1010.2 |
| 20260505064457 | 54 | 13 | 7.0 | 10.0 | 0.00 | 0.01 | 0.01 | 85 | 1010.1 |
| 20260505063957 | 54 | 21 | 6.0 | 13.0 | 0.00 | 0.01 | 0.01 | 85 | 1010.1 |
| 20260505063457 | 54 | 14 | 5.0 | 11.0 | 0.00 | 0.01 | 0.01 | 86 | 1010.1 |
| 20260505062957 | 54 | 21 | 5.0 | 9.0 | 0.00 | 0.01 | 0.01 | 86 | 1010.1 |
| 20260505062457 | 54 | 21 | 6.0 | 12.0 | 0.00 | 0.01 | 0.01 | 86 | 1010.1 |
| 20260505061957 | 54 | 14 | 6.0 | 12.0 | 0.00 | 0.01 | 0.01 | 86 | 1010.1 |
| 20260505061457 | 54 | 4 | 6.0 | 11.0 | 0.00 | 0.01 | 0.01 | 86 | 1010.1 |
| 20260505060957 | 54 | 16 | 6.0 | 13.0 | 0.00 | 0.01 | 0.01 | 86 | 1010.0 |
| 20260505060457 | 54 | 37 | 6.0 | 13.0 | 0.00 | 0.01 | 0.01 | 86 | 1010.0 |
| 20260505055957 | 54 | 34 | 6.0 | 9.0 | 0.00 | 0.01 | 0.01 | 86 | 1010.0 |
| 20260505055457 | 54 | 8 | 7.0 | 13.0 | 0.00 | 0.01 | 0.01 | 86 | 1010.1 |
| 20260505054957 | 54 | 45 | 5.0 | 11.0 | 0.00 | 0.01 | 0.01 | 86 | 1010.1 |
| 20260505054457 | 54 | 359 | 4.0 | 12.0 | 0.00 | 0.01 | 0.01 | 86 | 1010.1 |
| 20260505053957 | 54 | 343 | 3.0 | 7.0 | 0.00 | 0.01 | 0.01 | 87 | 1010.1 |
| 20260505053457 | 54 | 14 | 3.0 | 7.0 | 0.00 | 0.01 | 0.01 | 87 | 1010.1 |
| 20260505052957 | 54 | 27 | 3.0 | 9.0 | 0.00 | 0.01 | 0.01 | 87 | 1010.1 |
| 20260505052457 | 54 | 27 | 3.0 | 6.0 | 0.00 | 0.01 | 0.01 | 87 | 1010.1 |
| 20260505051957 | 54 | 10 | 4.0 | 8.0 | 0.00 | 0.01 | 0.01 | 87 | 1010.0 |
| 20260505051457 | 54 | 81 | 4.0 | 9.0 | 0.00 | 0.01 | 0.01 | 87 | 1010.0 |
| 20260505050957 | 54 | 10 | 4.0 | 8.0 | 0.00 | 0.01 | 0.01 | 87 | 1010.0 |
| 20260505050457 | 54 | 20 | 5.0 | 10.0 | 0.00 | 0.01 | 0.01 | 87 | 1010.1 |
| 20260505041457 | 54 | 25 | 4.0 | 12.0 | 0.01 | 0.01 | 0.01 | 87 | 1010.1 |
| 20260505040957 | 54 | 27 | 3.0 | 8.0 | 0.01 | 0.01 | 0.01 | 86 | 1010.2 |
| 20260505040457 | 54 | 37 | 3.0 | 8.0 | 0.01 | 0.01 | 0.01 | 87 | 1010.2 |
| 20260505035957 | 54 | 29 | 4.0 | 7.0 | 0.01 | 0.01 | 0.01 | 86 | 1010.2 |
| 20260505035457 | 54 | 27 | 5.0 | 13.0 | 0.01 | 0.01 | 0.01 | 86 | 1010.3 |
| 20260505034957 | 55 | 60 | 4.0 | 10.0 | 0.01 | 0.01 | 0.01 | 86 | 1010.3 |
| 20260505034457 | 55 | 71 | 4.0 | 9.0 | 0.01 | 0.01 | 0.01 | 86 | 1010.3 |
| 20260505033957 | 55 | 48 | 4.0 | 12.0 | 0.01 | 0.01 | 0.01 | 86 | 1010.3 |
| 20260505033457 | 55 | 14 | 4.0 | 11.0 | 0.01 | 0.01 | 0.01 | 86 | 1010.3 |
| 20260505032957 | 55 | 30 | 4.0 | 9.0 | 0.01 | 0.01 | 0.01 | 86 | 1010.2 |
| 20260505032457 | 55 | 50 | 5.0 | 9.0 | 0.01 | 0.01 | 0.01 | 86 | 1010.2 |
| 20260505031957 | 55 | 14 | 4.0 | 9.0 | 0.01 | 0.01 | 0.01 | 86 | 1010.2 |
| 20260505031457 | 55 | 14 | 4.0 | 8.0 | 0.00 | 0.00 | 0.00 | 86 | 1010.2 |
| 20260505030957 | 55 | 21 | 4.0 | 9.0 | 0.00 | 0.00 | 0.00 | 86 | 1010.3 |
| 20260505030457 | 55 | 333 | 3.0 | 6.0 | 0.00 | 0.00 | 0.00 | 86 | 1010.3 |
| 20260505025957 | 55 | 29 | 3.0 | 10.0 | 0.00 | 0.00 | 0.00 | 86 | 1010.4 |
| 20260505025457 | 55 | 20 | 2.0 | 5.0 | 0.00 | 0.00 | 0.00 | 86 | 1010.4 |
| 20260505024957 | 55 | 339 | 3.0 | 7.0 | 0.00 | 0.00 | 0.00 | 86 | 1010.4 |
| 20260505024457 | 55 | 18 | 3.0 | 7.0 | 0.00 | 0.00 | 0.00 | 86 | 1010.5 |
| 20260505023957 | 55 | 21 | 4.0 | 7.0 | 0.00 | 0.00 | 0.00 | 85 | 1010.5 |
| 20260505023457 | 55 | 4 | 5.0 | 9.0 | 0.00 | 0.00 | 0.00 | 85 | 1010.5 |
| 20260505022957 | 55 | 38 | 5.0 | 9.0 | 0.00 | 0.00 | 0.00 | 85 | 1010.7 |
| 20260505022457 | 55 | 43 | 4.0 | 8.0 | 0.00 | 0.00 | 0.00 | 85 | 1010.8 |
| 20260505021957 | 55 | 15 | 4.0 | 11.0 | 0.00 | 0.00 | 0.00 | 85 | 1010.8 |